Weather WX

World > North America > United States > North Dakota

Forest River, North Dakota Regional Weather

Lat: 48.22N, Lon: 97.47W
Wx Zone: NDZ016
Warning FLW WEATHER ALERT - (More Info. Click Here) Warning
Feedback

Forest River, ND Regional Weather

Expires:201907180800;;237947
ASUS43 KBIS 180710
RWRND 

NORTH DAKOTA REGIONAL WEATHER ROUNDUP
NATIONAL WEATHER SERVICE BISMARCK ND
200 AM CDT THU JUL 18 2019

NOTE: "FAIR" INDICATES FEW OR NO CLOUDS BELOW 12,000 FEET WITH NO
SIGNIFICANT WEATHER AND/OR OBSTRUCTIONS TO VISIBILITY.



NDZ004>008-012>016-024-026-027-054-180800-
NORTHEAST NORTH DAKOTA
  
CITY           SKY/WX    TMP DP  RH WIND       PRES   REMARKS
GRAND FORKS    CLOUDY    65  62  90 S5        29.62F                  
DEVILS LAKE    CLOUDY    72  64  76 SW9       29.65F                  
$$
 

SKY/WX - Weather  TMP - Temperature  DP - Dew Point  RH - Relative Humidity
WIND - Wind Direction/Speed PRES - Barometric Pressure VSB - Visibility
WCI - Wind Chill Index E13G22 Wind - East Wind 13 mph/Gusts of 22 mph